UAE658 OMDB-VRMM

Flight info

Callsign UAE658
Flight time N/A
Altitude 39000
Route ANVIX L223 TARDI N629 GIDAN P570 KITAL L894 ELBET ELBET1A
Aircraft B77L/H-SDE1E2E3FGHIJ2J3J4J5M1RWXY/LB1D1

Departure

Time 2026-05-07 05:28
Airport Dubai International Airport (OMDB)

Arrival

Time N/A
Airport Velana International Airport (VRMM)
Time Latitude Longitude Altitude Speed Heading
2026-05-07 04:48 25.24840 55.36370 31 ft 0 kts 212°
2026-05-07 05:08 25.24854 55.36379 24 ft 2 kts 212°
2026-05-07 05:08 25.24868 55.36389 18 ft 2 kts 212°
2026-05-07 05:08 25.24882 55.36398 45 ft 2 kts 218°
2026-05-07 05:09 25.24894 55.36411 31 ft 2 kts 230°
2026-05-07 05:09 25.24903 55.36425 26 ft 2 kts 243°
2026-05-07 05:09 25.24909 55.36442 30 ft 2 kts 269°
2026-05-07 05:09 25.24909 55.36451 31 ft 0 kts 296°
2026-05-07 05:12 25.24910 55.36449 31 ft 1 kts 300°
2026-05-07 05:12 25.24915 55.36445 30 ft 2 kts 321°
2026-05-07 05:12 25.24929 55.36435 28 ft 3 kts 324°
2026-05-07 05:13 25.24950 55.36419 27 ft 4 kts 328°
2026-05-07 05:13 25.24967 55.36408 27 ft 2 kts 329°
2026-05-07 05:13 25.24984 55.36397 30 ft 3 kts 332°
2026-05-07 05:13 25.25009 55.36384 31 ft 5 kts 334°
2026-05-07 05:14 25.25041 55.36366 31 ft 6 kts 331°
2026-05-07 05:14 25.25080 55.36343 31 ft 7 kts 335°
2026-05-07 05:14 25.25128 55.36341 31 ft 8 kts 19°
2026-05-07 05:14 25.25162 55.36362 30 ft 0 kts 30°
2026-05-07 05:20 25.25163 55.36362 30 ft 1 kts 30°
2026-05-07 05:20 25.25183 55.36375 29 ft 5 kts 30°
2026-05-07 05:20 25.25223 55.36401 32 ft 8 kts 30°
2026-05-07 05:20 25.25277 55.36436 26 ft 10 kts 30°
2026-05-07 05:21 25.25345 55.36481 27 ft 13 kts 31°
2026-05-07 05:21 25.25381 55.36635 29 ft 5 kts 121°
2026-05-07 05:21 25.25370 55.36655 29 ft 0 kts 121°
2026-05-07 05:22 25.25364 55.36666 31 ft 4 kts 121°
2026-05-07 05:22 25.25339 55.36713 30 ft 10 kts 120°
2026-05-07 05:23 25.25290 55.36804 26 ft 17 kts 121°
2026-05-07 05:23 25.25216 55.36933 26 ft 23 kts 123°
2026-05-07 05:23 25.25124 55.37095 28 ft 27 kts 121°
2026-05-07 05:23 25.25019 55.37284 27 ft 28 kts 122°
2026-05-07 05:24 25.24904 55.37484 28 ft 33 kts 123°
2026-05-07 05:24 25.24788 55.37690 27 ft 26 kts 122°
2026-05-07 05:24 25.24704 55.37839 27 ft 22 kts 121°
2026-05-07 05:24 25.24672 55.37931 27 ft 11 kts 79°
2026-05-07 05:25 25.24694 55.37968 27 ft 0 kts 44°
2026-05-07 05:26 25.24699 55.37973 28 ft 3 kts 40°
2026-05-07 05:26 25.24746 55.38011 28 ft 12 kts 27°
2026-05-07 05:27 25.24836 55.37969 29 ft 20 kts 305°
2026-05-07 05:27 25.24974 55.37718 30 ft 66 kts 302°
2026-05-07 05:27 25.25357 55.37030 30 ft 141 kts 301°
2026-05-07 05:27 25.25954 55.35938 200 ft 182 kts 300°
2026-05-07 05:28 25.26691 55.34699 656 ft 201 kts 302°
2026-05-07 05:28 25.27425 55.33433 1602 ft 191 kts 295°
2026-05-07 05:28 25.28101 55.32182 2434 ft 190 kts 296°
2026-05-07 05:28 25.28803 55.30899 3071 ft 200 kts 296°
2026-05-07 05:29 25.29310 55.29462 3687 ft 200 kts 272°
2026-05-07 05:29 25.29039 55.28006 4490 ft 194 kts 238°
2026-05-07 05:29 25.28248 55.26804 5074 ft 195 kts 242°
2026-05-07 05:29 25.27657 55.25428 5600 ft 201 kts 251°
2026-05-07 05:30 25.27153 55.23966 6184 ft 206 kts 249°
2026-05-07 05:30 25.26562 55.22492 6701 ft 213 kts 248°
2026-05-07 05:30 25.25921 55.20991 7269 ft 219 kts 246°
2026-05-07 05:30 25.25234 55.19458 7805 ft 227 kts 247°
2026-05-07 05:31 25.24553 55.17841 8224 ft 244 kts 244°
2026-05-07 05:31 25.23411 55.16398 8510 ft 266 kts 211°
2026-05-07 05:31 25.21616 55.15861 9323 ft 266 kts 181°
2026-05-07 05:31 25.19764 55.16084 10075 ft 261 kts 162°
2026-05-07 05:32 25.18216 55.16965 11038 ft 249 kts 134°
2026-05-07 05:32 25.17235 55.18572 11426 ft 264 kts 108°
2026-05-07 05:32 25.16600 55.20564 11782 ft 284 kts 110°
2026-05-07 05:32 25.15793 55.22585 12661 ft 291 kts 114°
2026-05-07 05:33 25.14882 55.24597 13690 ft 294 kts 115°
2026-05-07 05:33 25.13930 55.26612 14577 ft 299 kts 116°
2026-05-07 05:33 25.12958 55.28645 15354 ft 307 kts 116°
2026-05-07 05:33 25.11944 55.30754 16169 ft 315 kts 117°
2026-05-07 05:34 25.10909 55.32901 17037 ft 319 kts 117°
2026-05-07 05:34 25.09915 55.35136 17823 ft 328 kts 115°
2026-05-07 05:34 25.08970 55.37470 18517 ft 337 kts 114°
2026-05-07 05:34 25.08008 55.39852 19229 ft 343 kts 115°
2026-05-07 05:35 25.07026 55.42272 19967 ft 350 kts 115°
2026-05-07 05:35 25.06043 55.44801 20311 ft 371 kts 115°
2026-05-07 05:35 25.05008 55.47516 20468 ft 395 kts 114°
2026-05-07 05:35 25.03908 55.50397 20607 ft 419 kts 114°
2026-05-07 05:36 25.02741 55.53435 20780 ft 439 kts 114°
2026-05-07 05:36 25.01492 55.56556 21177 ft 451 kts 117°
2026-05-07 05:36 24.99942 55.59573 21798 ft 455 kts 123°
2026-05-07 05:36 24.98237 55.62524 22449 ft 459 kts 124°
2026-05-07 05:37 24.96521 55.65525 23042 ft 465 kts 123°
2026-05-07 05:37 24.94829 55.68600 23546 ft 472 kts 122°
2026-05-07 05:37 24.93104 55.71700 24014 ft 477 kts 125°
2026-05-07 05:37 24.91171 55.74680 24491 ft 480 kts 129°
2026-05-07 05:38 24.89133 55.77606 24999 ft 483 kts 130°
2026-05-07 05:38 24.64659 56.08714 28788 ft 512 kts 149°
2026-05-07 05:38 24.27724 56.54678 35528 ft 500 kts 140°
2026-05-07 05:38 23.99486 56.96890 38521 ft 512 kts 135°
2026-05-07 05:39 23.89440 57.10455 38643 ft 515 kts 127°
2026-05-07 05:39 23.78468 57.27055 38883 ft 505 kts 129°